Location: Newark
(48.5156°N, 1.8989°W)
Time: 05:04:38
(UTC+00:00)

Courier 1B - Pass Details

Date: 25 November 2019
Orbit: 963 x 1209 km, 28.3° (Epoch: 06 December)

Event Time Altitude Azimuth Distance (km) Brightness Sun altitude
Rises 06:26:51 0° 239° (WSW) 3,894 10.3 -10.2°
Reaches altitude 10° 06:31:42 10° 211° (SSW) 2,871 9.9 -9.5°
Maximum altitude 06:34:13 12° 190° (S) 2,681 10.0 -9.1°
Drops below altitude 10° 06:36:41 10° 168° (SSE) 2,806 10.4 -8.7°
Sets 06:41:17 0° 139° (SE) 3,703 11.8 -8.0°
